SCP
0 0 0 0 0 0 0 0 0 0 0 0 0 0 0 0 0 0 0 0 0 0 0 0 0 0 0 0 0 0 0 0 0 1 1 1 1 1 1 1 1 1 1
0 0 0 0 0 0 0 0 0 0 0 0 0 0 0 0 0 0 0 0 0 0 0 0 0 0 0 0 0 0 0 0 0 0 1 2 1 1 1 1 1 1 1
0 0 0 0 0 0 0 0 0 0 0 0 0 0 0 0 0 0 0 0 0 0 0 0 0 0 0 0 0 0 0 0 0 0 1 1 2 1 1 1 1 1 1
0 0 0 0 0 0 0 0 0 0 0 0 0 0 0 0 0 0 0 0 0 0 0 0 0 0 0 0 0 0 0 0 0 0 1 1 1 2 2 1 1 1 1
0 0 0 0 0 0 0 0 0 0 0 0 0 0 0 0 0 0 0 0 0 0 0 0 0 0 0 0 0 0 0 0 0 0 0 0 1 1 2 2 1 1 1
0 0 0 0 0 0 0 0 0 0 0 0 0 0 0 0 0 0 0 0 0 0 0 0 0 0 0 0 0 0 0 0 0 0 0 1 1 1 1 1 1 1 1
0 0 0 0 0 0 0 0 0 0 0 0 0 0 0 0 0 0 0 0 0 0 0 0 0 0 0 0 0 0 0 0 0 0 0 0 1 0 0 1 2 1 2
0 0 0 0 0 0 0 0 0 0 0 0 0 0 0 0 0 0 0 0 0 0 0 0 0 0 0 0 0 1 0 -0 0 0 0 0 1 0 0 1 1 1 2
0 0 0 0 0 0 0 0 0 0 0 0 0 0 0 0 0 -0 -0 0 0 0 0 0 0 0 0 0 0 0 0 0 0 0 0 0 0 0 0 1 1 1 1
0 0 0 0 0 0 0 0 0 0 0 0 0 0 0 0 0 -0 0 0 0 0 0 0 0 0 0 0 0 1 1 1 0 0 0 0 0 0 0 0 1 1 1
0 0 0 0 0 0 0 0 0 -0 0 0 0 0 0 0 0 0 -0 -0 0 0 0 0 0 0 0 0 0 0 1 0 0 0 0 0 0 0 0 0 0 1 1
0 0 0 0 0 0 0 0 0 0 0 0 0 0 0 0 0 0 0 -0 0 0 0 0 0 0 0 0 0 0 0 0 0 0 0 0 0 0 0 0 0 0 0
0 0 0 0 0 0 0 0 0 0 0 0 0 0 0 0 0 0 -0 -0 0 0 0 0 0 0 0 0 0 0 0 0 0 0 0 0 0 0 0 0 0 0 0
0 0 0 0 0 0 0 0 0 0 0 0 0 0 0 0 0 0 0 0 0 0 0 0 0 0 0 0 0 0 0 0 0 0 0 0 0 0 0 0 0 1 1
0 0 0 0 0 0 0 0 0 0 0 0 0 0 0 0 0 0 0 0 0 0 0 0 0 0 0 0 0 0 0 0 0 0 0 0 0 0 0 0 0 0 0
0 0 0 0 0 0 0 0 0 0 -0 -0 -0 -0 -0 -0 -0 0 0 0 0 0 0 0 0 0 0 0 0 0 0 0 0 0 0 0 0 0 0 0 0 0 0
0 0 0 0 0 0 0 0 0 0 0 -0 0 -0 0 -0 -0 -0 0 0 0 0 0 0 0 0 0 0 0 0 0 0 0 0 0 0 0 0 0 0 0 0 0
0 0 0 0 0 0 0 0 0 0 0 0 0 -0 -0 -0 -0 -0 -0 -0 0 0 0 -0 0 0 0 0 0 0 0 0 0 0 0 0 0 0 0 0 0 0 0
0 0 0 0 0 0 0 0 0 0 0 0 0 0 0 0 0 -0 -0 -0 0 0 0 -0 0 0 0 0 0 0 0 0 0 0 0 0 0 0 0 0 0 0 0
0 0 0 0 0 0 0 0 0 0 0 0 0 -0 -0 -0 -0 -0 -0 -0 0 0 -0 -0 -0 -0 0 0 0 0 0 0 0 0 0 0 0 0 0 0 0 0 0
0 0 0 0 0 0 0 0 0 0 0 0 0 -0 -0 -0 -0 -0 -0 0 -0 -0 0 0 -0 -0 0 0 0 0 0 0 0 0 0 0 0 0 0 0 0 0 0
0 0 0 0 0 0 0 0 0 0 0 0 0 0 0 0 -0 -0 -0 -0 0 0 0 0 -0 -0 -0 0 0 0 0 0 0 0 0 0 0 0 0 0 0 0 0
0 0 0 0 0 0 0 0 0 0 0 0 0 0 0 0 0 0 0 0 0 0 0 0 0 0 0 0 0 0 0 0 0 0 0 0 0 0 0 0 0 0 0
0 0 0 0 0 0 0 0 -0 0 0 0 0 0 0 0 0 -0 -0 -0 0 0 -0 -0 0 -0 0 0 0 0 0 0 0 0 0 0 0 0 0 0 0 0 0
0 0 0 0 0 0 -0 -0 -0 -0 0 -0 0 0 0 0 -0 -0 -0 -0 -0 0 0 0 0 -0 -0 0 0 0 0 0 0 0 0 0 0 0 0 0 0 0 0
0 0 0 0 0 0 -0 -0 -0 0 0 0 0 0 -0 -0 -0 -0 0 0 0 0 0 0 -0 0 0 0 -0 -0 0 0 0 0 0 0 0 0 0 0 0 0 0
Wind_Speed_500mb
18 22 23 24 24 26 31 32 34 34 33 32 31 37 38 36 29 28 26 26 24 24 20 22 21 19 21 28 32 33 35 37 40 46 47 53 53 51 51 51 52 53 55
38 37 37 37 35 35 40 34 31 28 30 35 34 35 38 38 37 38 38 34 31 36 34 32 29 26 24 22 26 30 31 33 32 39 44 48 54 54 54 52 52 56 56
45 46 46 46 44 42 46 37 38 33 33 35 35 38 47 46 45 47 42 45 42 39 36 37 36 37 33 28 27 30 31 30 29 30 37 43 47 52 54 55 55 56 57
42 48 48 52 41 45 46 44 40 36 33 35 38 33 33 31 36 41 48 49 50 49 46 44 41 40 41 41 33 33 32 33 30 29 34 40 43 47 52 55 55 57 58
41 41 45 46 45 43 41 44 46 38 33 30 29 35 33 32 32 34 39 43 49 54 59 56 51 44 37 40 41 35 36 35 35 30 26 36 41 45 49 52 55 55 56
35 47 46 49 41 45 49 48 51 42 39 34 37 41 39 41 43 43 36 39 41 48 54 60 65 58 49 43 44 37 37 32 34 31 28 27 38 41 47 50 52 55 56
49 47 38 51 45 47 44 49 51 48 46 43 42 47 47 48 47 38 47 38 27 33 36 49 62 65 60 56 49 43 37 36 34 34 36 32 31 41 40 47 51 52 54
36 39 44 43 44 45 47 48 54 55 54 48 45 46 48 48 47 48 52 54 38 35 34 41 48 60 66 63 57 44 37 39 39 37 38 34 27 33 40 38 45 49 51
39 42 42 42 42 47 51 55 58 62 62 55 50 38 22 27 48 42 60 54 45 34 34 32 38 41 51 49 48 41 38 35 36 32 27 31 26 28 33 37 38 43 47
48 52 50 45 45 47 47 52 57 65 59 46 36 40 34 33 35 46 39 67 56 36 36 34 35 32 38 48 49 39 37 36 30 25 29 31 28 24 24 31 36 37 38
47 48 53 57 55 48 50 53 50 47 53 50 40 47 42 47 37 49 64 67 61 44 36 32 32 31 32 40 44 34 39 35 34 30 29 29 32 30 31 27 30 38 40
46 49 47 51 55 57 59 53 48 50 52 49 46 47 49 48 40 46 60 48 56 56 36 30 28 35 36 34 41 43 39 40 36 33 35 31 26 22 26 28 24 32 40
45 45 58 58 63 67 66 54 46 46 44 40 39 41 43 44 41 46 48 42 47 50 48 34 24 27 33 38 37 33 38 40 35 34 37 33 30 27 23 23 28 28 32
43 56 59 62 57 56 53 52 50 48 45 43 36 34 37 35 32 33 39 36 42 41 40 41 20 19 26 29 41 43 45 41 38 38 42 39 37 35 33 28 21 26 31
49 56 54 55 56 54 52 46 44 44 43 38 39 35 36 32 33 31 31 31 31 27 35 36 28 16 19 25 30 37 40 43 46 42 39 38 40 41 40 37 31 26 28
51 51 50 53 55 55 49 43 41 37 31 29 31 37 34 36 30 27 28 32 35 37 40 36 31 21 17 18 20 27 35 43 42 42 41 38 40 41 43 43 37 32 31
52 45 46 51 55 54 45 39 32 27 22 23 24 24 26 27 28 28 34 38 40 40 46 48 41 26 25 24 27 26 25 25 35 37 37 35 38 42 39 40 39 35 33
40 41 45 50 48 45 41 36 30 26 27 29 26 29 31 32 37 38 41 42 40 41 42 46 39 26 21 20 23 27 27 29 25 32 32 35 34 35 37 38 37 36 34
38 39 45 44 41 40 37 30 26 25 30 30 32 36 39 42 45 40 38 40 39 38 38 42 38 27 22 22 25 28 30 32 35 36 38 36 37 38 38 39 42 44 41
34 36 37 41 42 43 42 39 38 32 28 29 30 29 28 32 34 30 30 28 26 31 33 36 37 32 28 27 29 29 30 28 30 36 40 44 47 48 48 46 39 39 43
32 37 39 40 41 44 43 42 43 38 35 30 21 21 26 22 17 17 18 17 23 26 31 33 35 36 36 33 31 32 36 35 34 37 40 43 48 46 43 42 42 38 33
34 36 39 43 44 43 43 41 42 36 24 20 17 13 10 8 4 4 5 10 15 19 25 31 34 36 34 36 43 46 48 47 44 37 36 33 32 38 37 38 42 38 31
36 35 38 42 46 45 46 45 39 28 19 12 15 14 6 4 7 9 10 12 17 22 27 31 33 36 40 31 28 30 30 31 29 23 10 16 16 18 21 23 28 28 25
39 36 38 42 49 51 50 41 31 16 15 15 14 14 12 10 12 11 14 20 21 19 23 28 30 28 28 26 23 16 17 20 16 14 22 17 15 25 24 26 24 25 27
40 37 38 44 49 55 49 35 15 11 11 9 7 9 13 12 16 21 21 17 12 10 7 8 11 13 15 16 21 18 18 24 30 29 20 21 38 49 36 34 28 21 21
42 41 38 43 47 53 43 21 10 5 2 3 9 8 8 7 9 6 1 2 3 5 11 10 8 3 1 5 9 10 9 28 37 26 26 33 50 34 24 31 31 26 19
Wind_Direction_500mb
288 274 270 276 296 280 292 293 288 293 291 292 283 290 294 291 283 274 268 271 271 266 262 264 263 267 276 270 272 274 277 279 265 251 243 236 234 234 234 230 228 228 226
265 265 265 270 278 288 288 290 286 296 299 297 286 284 286 284 281 273 270 270 278 269 265 266 264 261 267 279 276 280 281 281 281 257 246 239 235 232 233 233 229 232 229
264 266 262 266 270 280 284 277 277 290 298 291 288 296 295 286 275 271 270 268 271 273 269 268 270 267 263 266 265 270 277 273 283 273 252 246 241 237 233 233 233 232 233
273 278 285 289 272 275 274 268 276 284 294 288 289 295 308 296 288 281 279 272 266 265 262 262 265 270 262 257 262 261 262 266 270 279 262 248 243 239 236 234 233 233 233
288 283 290 290 280 279 277 276 279 273 284 290 279 290 303 304 313 305 288 280 270 269 264 260 258 260 258 254 260 256 259 257 260 273 277 256 246 241 237 236 234 234 234
277 282 291 288 277 282 285 276 271 271 278 283 281 281 291 295 309 315 309 285 274 269 265 266 262 256 255 253 255 259 256 249 250 262 271 271 253 244 239 236 235 235 235
281 290 289 296 276 275 271 272 269 270 273 283 288 286 282 285 291 309 321 314 287 281 282 265 260 259 252 253 258 255 249 245 245 262 270 268 262 245 242 238 235 235 234
303 303 299 291 285 282 276 271 271 267 269 271 277 280 285 287 297 304 314 323 304 283 283 271 267 262 255 256 248 249 245 241 244 262 269 259 258 251 241 242 239 236 236
317 319 317 311 300 292 285 282 278 272 265 264 268 263 263 273 298 310 316 321 316 292 296 281 266 267 254 245 226 237 246 240 246 258 252 248 255 249 240 239 241 240 238
313 317 315 311 302 308 305 297 293 299 290 259 255 249 257 272 299 310 306 309 312 300 299 291 263 265 243 224 218 226 226 235 243 244 247 247 255 252 242 241 240 241 241
317 316 315 316 318 316 307 306 298 292 289 290 294 291 290 281 273 287 298 303 302 298 292 288 277 256 242 221 219 214 222 236 242 244 250 248 248 250 256 258 250 239 238
310 318 322 324 320 314 312 306 295 285 284 286 284 279 276 269 272 277 281 291 294 300 301 300 286 256 248 229 220 233 233 237 243 251 250 247 249 245 250 245 249 245 237
325 326 326 321 316 313 312 307 296 286 281 283 282 282 280 271 268 270 272 281 289 303 307 309 292 260 244 242 235 233 231 237 246 239 246 243 252 254 251 251 242 238 241
330 329 319 314 314 315 312 305 301 290 284 271 274 284 283 272 268 262 266 277 288 295 297 306 312 272 244 241 237 238 239 240 252 246 242 244 250 250 247 251 253 247 242
328 319 321 326 328 326 324 318 309 302 284 274 273 272 280 268 270 260 262 270 273 284 293 293 311 308 256 253 250 244 242 242 241 244 246 243 247 246 248 250 251 255 246
323 325 329 335 336 328 327 324 320 316 289 282 282 276 268 272 264 259 259 272 276 271 270 276 287 278 264 263 258 255 251 243 241 244 244 249 252 244 243 244 247 254 252
326 325 331 333 332 334 332 330 330 326 298 286 289 298 273 268 268 265 269 272 274 263 263 274 280 281 268 260 251 249 245 242 238 239 241 246 251 244 241 242 247 247 247
324 325 333 335 339 338 333 325 331 322 308 286 290 285 276 274 271 270 273 271 266 262 261 268 275 280 272 255 245 244 250 242 241 233 241 241 234 231 236 240 243 239 242
324 326 331 335 335 339 348 340 335 326 315 304 294 289 279 271 275 273 270 267 260 256 258 261 266 272 266 255 250 251 246 248 250 247 245 241 235 237 243 247 247 245 246
333 335 337 341 336 329 329 330 328 318 314 308 304 296 289 279 274 274 269 262 255 252 252 254 259 267 266 259 259 254 256 251 256 252 248 247 247 249 249 248 242 243 244
332 337 335 336 336 331 329 325 326 323 317 314 312 312 309 295 272 268 266 263 261 259 253 255 260 265 267 270 266 265 264 263 262 255 253 257 253 247 245 243 241 244 245
326 330 332 332 332 333 331 325 320 319 320 314 318 326 340 18 13 342 281 285 275 260 255 255 264 266 272 276 276 271 264 258 261 258 266 259 239 234 241 243 234 235 236
323 325 329 331 331 330 327 323 315 309 314 299 290 310 297 333 340 298 281 292 288 273 263 261 263 267 273 276 273 267 252 237 239 256 251 227 232 230 230 219 208 215 214
321 316 321 326 328 332 324 316 310 306 313 308 296 273 263 283 301 286 282 295 304 284 276 264 261 265 269 267 260 254 229 230 228 203 200 181 211 216 197 189 188 188 190
310 312 313 320 324 330 322 309 282 310 324 339 314 279 275 282 286 285 283 294 302 316 287 286 265 264 277 265 242 227 211 194 182 177 186 169 140 128 124 137 142 157 178
305 305 307 317 322 327 323 296 267 277 165 345 316 310 286 300 320 306 257 333 67 77 91 73 44 26 261 203 185 170 185 186 176 174 194 168 139 140 113 121 130 136 146
Wind_Speed_850mb
18 22 23 24 24 26 31 32 34 34 33 32 31 37 38 36 29 28 26 26 24 24 20 22 21 19 21 28 32 33 35 37 40 46 47 53 53 51 51 51 52 53 55
38 37 37 37 35 35 40 34 31 28 30 35 34 35 38 38 37 38 38 34 31 36 34 32 29 26 24 22 26 30 31 33 32 39 44 48 54 54 54 52 52 56 56
45 46 46 46 44 42 46 37 38 33 33 35 35 38 47 46 45 47 42 45 42 39 36 37 36 37 33 28 27 30 31 30 29 30 37 43 47 52 54 55 55 56 57
42 48 48 52 41 45 46 44 40 36 33 35 38 33 33 31 36 41 48 49 50 49 46 44 41 40 41 41 33 33 32 33 30 29 34 40 43 47 52 55 55 57 58
41 41 45 46 45 43 41 44 46 38 33 30 29 35 33 32 32 34 39 43 49 54 59 56 51 44 37 40 41 35 36 35 35 30 26 36 41 45 49 52 55 55 56
35 47 46 49 41 45 49 48 51 42 39 34 37 41 39 41 43 43 36 39 41 48 54 60 65 58 49 43 44 37 37 32 34 31 28 27 38 41 47 50 52 55 56
49 47 38 51 45 47 44 49 51 48 46 43 42 47 47 48 47 38 47 38 27 33 36 49 62 65 60 56 49 43 37 36 34 34 36 32 31 41 40 47 51 52 54
36 39 44 43 44 45 47 48 54 55 54 48 45 46 48 48 47 48 52 54 38 35 34 41 48 60 66 63 57 44 37 39 39 37 38 34 27 33 40 38 45 49 51
39 42 42 42 42 47 51 55 58 62 62 55 50 38 22 27 48 42 60 54 45 34 34 32 38 41 51 49 48 41 38 35 36 32 27 31 26 28 33 37 38 43 47
48 52 50 45 45 47 47 52 57 65 59 46 36 40 34 33 35 46 39 67 56 36 36 34 35 32 38 48 49 39 37 36 30 25 29 31 28 24 24 31 36 37 38
47 48 53 57 55 48 50 53 50 47 53 50 40 47 42 47 37 49 64 67 61 44 36 32 32 31 32 40 44 34 39 35 34 30 29 29 32 30 31 27 30 38 40
46 49 47 51 55 57 59 53 48 50 52 49 46 47 49 48 40 46 60 48 56 56 36 30 28 35 36 34 41 43 39 40 36 33 35 31 26 22 26 28 24 32 40
45 45 58 58 63 67 66 54 46 46 44 40 39 41 43 44 41 46 48 42 47 50 48 34 24 27 33 38 37 33 38 40 35 34 37 33 30 27 23 23 28 28 32
43 56 59 62 57 56 53 52 50 48 45 43 36 34 37 35 32 33 39 36 42 41 40 41 20 19 26 29 41 43 45 41 38 38 42 39 37 35 33 28 21 26 31
49 56 54 55 56 54 52 46 44 44 43 38 39 35 36 32 33 31 31 31 31 27 35 36 28 16 19 25 30 37 40 43 46 42 39 38 40 41 40 37 31 26 28
51 51 50 53 55 55 49 43 41 37 31 29 31 37 34 36 30 27 28 32 35 37 40 36 31 21 17 18 20 27 35 43 42 42 41 38 40 41 43 43 37 32 31
52 45 46 51 55 54 45 39 32 27 22 23 24 24 26 27 28 28 34 38 40 40 46 48 41 26 25 24 27 26 25 25 35 37 37 35 38 42 39 40 39 35 33
40 41 45 50 48 45 41 36 30 26 27 29 26 29 31 32 37 38 41 42 40 41 42 46 39 26 21 20 23 27 27 29 25 32 32 35 34 35 37 38 37 36 34
38 39 45 44 41 40 37 30 26 25 30 30 32 36 39 42 45 40 38 40 39 38 38 42 38 27 22 22 25 28 30 32 35 36 38 36 37 38 38 39 42 44 41
34 36 37 41 42 43 42 39 38 32 28 29 30 29 28 32 34 30 30 28 26 31 33 36 37 32 28 27 29 29 30 28 30 36 40 44 47 48 48 46 39 39 43
32 37 39 40 41 44 43 42 43 38 35 30 21 21 26 22 17 17 18 17 23 26 31 33 35 36 36 33 31 32 36 35 34 37 40 43 48 46 43 42 42 38 33
34 36 39 43 44 43 43 41 42 36 24 20 17 13 10 8 4 4 5 10 15 19 25 31 34 36 34 36 43 46 48 47 44 37 36 33 32 38 37 38 42 38 31
36 35 38 42 46 45 46 45 39 28 19 12 15 14 6 4 7 9 10 12 17 22 27 31 33 36 40 31 28 30 30 31 29 23 10 16 16 18 21 23 28 28 25
39 36 38 42 49 51 50 41 31 16 15 15 14 14 12 10 12 11 14 20 21 19 23 28 30 28 28 26 23 16 17 20 16 14 22 17 15 25 24 26 24 25 27
40 37 38 44 49 55 49 35 15 11 11 9 7 9 13 12 16 21 21 17 12 10 7 8 11 13 15 16 21 18 18 24 30 29 20 21 38 49 36 34 28 21 21
42 41 38 43 47 53 43 21 10 5 2 3 9 8 8 7 9 6 1 2 3 5 11 10 8 3 1 5 9 10 9 28 37 26 26 33 50 34 24 31 31 26 19
Wind_Direction_850mb
288 274 270 276 296 280 292 293 288 293 291 292 283 290 294 291 283 274 268 271 271 266 262 264 263 267 276 270 272 274 277 279 265 251 243 236 234 234 234 230 228 228 226
265 265 265 270 278 288 288 290 286 296 299 297 286 284 286 284 281 273 270 270 278 269 265 266 264 261 267 279 276 280 281 281 281 257 246 239 235 232 233 233 229 232 229
264 266 262 266 270 280 284 277 277 290 298 291 288 296 295 286 275 271 270 268 271 273 269 268 270 267 263 266 265 270 277 273 283 273 252 246 241 237 233 233 233 232 233
273 278 285 289 272 275 274 268 276 284 294 288 289 295 308 296 288 281 279 272 266 265 262 262 265 270 262 257 262 261 262 266 270 279 262 248 243 239 236 234 233 233 233
288 283 290 290 280 279 277 276 279 273 284 290 279 290 303 304 313 305 288 280 270 269 264 260 258 260 258 254 260 256 259 257 260 273 277 256 246 241 237 236 234 234 234
277 282 291 288 277 282 285 276 271 271 278 283 281 281 291 295 309 315 309 285 274 269 265 266 262 256 255 253 255 259 256 249 250 262 271 271 253 244 239 236 235 235 235
281 290 289 296 276 275 271 272 269 270 273 283 288 286 282 285 291 309 321 314 287 281 282 265 260 259 252 253 258 255 249 245 245 262 270 268 262 245 242 238 235 235 234
303 303 299 291 285 282 276 271 271 267 269 271 277 280 285 287 297 304 314 323 304 283 283 271 267 262 255 256 248 249 245 241 244 262 269 259 258 251 241 242 239 236 236
317 319 317 311 300 292 285 282 278 272 265 264 268 263 263 273 298 310 316 321 316 292 296 281 266 267 254 245 226 237 246 240 246 258 252 248 255 249 240 239 241 240 238
313 317 315 311 302 308 305 297 293 299 290 259 255 249 257 272 299 310 306 309 312 300 299 291 263 265 243 224 218 226 226 235 243 244 247 247 255 252 242 241 240 241 241
317 316 315 316 318 316 307 306 298 292 289 290 294 291 290 281 273 287 298 303 302 298 292 288 277 256 242 221 219 214 222 236 242 244 250 248 248 250 256 258 250 239 238
310 318 322 324 320 314 312 306 295 285 284 286 284 279 276 269 272 277 281 291 294 300 301 300 286 256 248 229 220 233 233 237 243 251 250 247 249 245 250 245 249 245 237
325 326 326 321 316 313 312 307 296 286 281 283 282 282 280 271 268 270 272 281 289 303 307 309 292 260 244 242 235 233 231 237 246 239 246 243 252 254 251 251 242 238 241
330 329 319 314 314 315 312 305 301 290 284 271 274 284 283 272 268 262 266 277 288 295 297 306 312 272 244 241 237 238 239 240 252 246 242 244 250 250 247 251 253 247 242
328 319 321 326 328 326 324 318 309 302 284 274 273 272 280 268 270 260 262 270 273 284 293 293 311 308 256 253 250 244 242 242 241 244 246 243 247 246 248 250 251 255 246
323 325 329 335 336 328 327 324 320 316 289 282 282 276 268 272 264 259 259 272 276 271 270 276 287 278 264 263 258 255 251 243 241 244 244 249 252 244 243 244 247 254 252
326 325 331 333 332 334 332 330 330 326 298 286 289 298 273 268 268 265 269 272 274 263 263 274 280 281 268 260 251 249 245 242 238 239 241 246 251 244 241 242 247 247 247
324 325 333 335 339 338 333 325 331 322 308 286 290 285 276 274 271 270 273 271 266 262 261 268 275 280 272 255 245 244 250 242 241 233 241 241 234 231 236 240 243 239 242
324 326 331 335 335 339 348 340 335 326 315 304 294 289 279 271 275 273 270 267 260 256 258 261 266 272 266 255 250 251 246 248 250 247 245 241 235 237 243 247 247 245 246
333 335 337 341 336 329 329 330 328 318 314 308 304 296 289 279 274 274 269 262 255 252 252 254 259 267 266 259 259 254 256 251 256 252 248 247 247 249 249 248 242 243 244
332 337 335 336 336 331 329 325 326 323 317 314 312 312 309 295 272 268 266 263 261 259 253 255 260 265 267 270 266 265 264 263 262 255 253 257 253 247 245 243 241 244 245
326 330 332 332 332 333 331 325 320 319 320 314 318 326 340 18 13 342 281 285 275 260 255 255 264 266 272 276 276 271 264 258 261 258 266 259 239 234 241 243 234 235 236
323 325 329 331 331 330 327 323 315 309 314 299 290 310 297 333 340 298 281 292 288 273 263 261 263 267 273 276 273 267 252 237 239 256 251 227 232 230 230 219 208 215 214
321 316 321 326 328 332 324 316 310 306 313 308 296 273 263 283 301 286 282 295 304 284 276 264 261 265 269 267 260 254 229 230 228 203 200 181 211 216 197 189 188 188 190
310 312 313 320 324 330 322 309 282 310 324 339 314 279 275 282 286 285 283 294 302 316 287 286 265 264 277 265 242 227 211 194 182 177 186 169 140 128 124 137 142 157 178
305 305 307 317 322 327 323 296 267 277 165 345 316 310 286 300 320 306 257 333 67 77 91 73 44 26 261 203 185 170 185 186 176 174 194 168 139 140 113 121 130 136 146